DMSP 5D-2 F13 DEB, 42322

Orbit data source: Space-Track

DMSP 5D-2 F13 DEB, 42322 is space debris in SSO originally from a launch on Fri, 24 Mar 1995 UTC launched from the Air Force Western Test Range (AFWTR). Debris objects in space refer to the collection of defunct objects orbiting the Earth. Examples of debris include non-operational satellites, rocket bodies, and fragments generated from explosions, collisions, or faulty payload assembly.

Loading next visibility...
Identifier
42322, 1995-015JQ
Orbit
SSO
Country
Flag of USUS
Related business
Manufacturer
Unknown
Mission
Spacecraft
Bus & Motor
Unknown
Mass
Unknown
Launch date (UTC)
1995-03-24 (31 years ago)
Launch vehicle
Unknown
Launch site
Air Force Western Test Range (AFWTR)
Object type
Payload
Rocket body
Debris
Shape & HBR
Unknown shape, 0.1 m
Radar Cross Section
Small (<0.1 m²)

Expand to show TLE details & history
Last TLE update: 17 hours ago

TLE from 17 hours ago
0 DMSP 5D-2 F13 DEB
1 42322U 95015JQ  26103.91949661  .00014764  00000-0  20180-2 0  9995
2 42322  98.7587 169.2885 0025024 184.1559 175.9445 14.78464328573337
Epoch: 2026-04-13T22:04Z
TLE epoch observation values (Epoch: 2026-04-13T22:04:04.507Z)
Latitude
-0.00005°
Longitude
-3.83346°
Altitude
654.676 km
Speed
7.521 km/s
True Right ascension
11h 17m 09s
True Declination
0° 00' 00"
Sunlit
Object was in full shadow at epoch
Visualization orbit readout
Latitude
Unknown
Longitude
Unknown
Altitude
Unknown
Speed
Unknown
Apparent Right ascension
Unknown
Apparent Declination
Unknown
Sunlit
N/A
Visualization observer readout
Local Sidereal Time
21:26:33
Azimuth
Unknown
Elevation
Unknown
Doppler factor
Unknown
Orbital elements
Apogee altitude
648.799 km
Perigee altitude
613.719 km
Semi-major axis
7,009.396 km
Eccentricity
0.0025
Inclination
98.7587°
RAAN
169.2885°
Arg. of periapsis
184.1559°
True anomaly
175.96472°
Mean anomaly
175.9445°
Eccentric anomaly
175.95461°
Mean motion
3.69847 °/min
Orbital period
97.34 mins
BSTAR
0.002018
Loading maneuver chart data...
Computing Atmospheric mass density...
Loading historical data...
Loading historical data...
Loading historical data...
Loading historical data...
Loading historical data...
Loading historical data...
Loading historical data...

Documentation

Showing up to 5 results
|